STARLINK-11193, 60195

Orbit data source: Space-Track

STARLINK-11193, 60195 is a payload satellite owned by SpaceX/Seattle (US) in LEO that was launched on Wed, 03 Jul 2024 UTC via an FALCON 9 launch vehicle from the Air Force Eastern Test Range (AFETR). Payload-class satellites include a variety of spacecraft equipped with specific instruments for various scientific and technological missions. These include communications satellites like Starlink; space stations such as the ISS; scientific satellites like the Hubble; Earth observation satellites from companies like Planet Labs, Umbra, and HawkEye 360; GPS; miniature CubeSats for education and research; and military/defense satellites.

Loading next visibility...
Identifier
60195, 2024-124N
Orbit
LEO
Last TLE update
20 hours ago
Origin
Manufacturer
SpaceX/Seattle
Mission
Operational Commercial Communications
Bus & Motor
STARLINK V2M, Unknown motor
Mass
730 kg wet, ~700 kg dry
Launch date (UTC)
2024-07-03 (10 months ago)
Launch vehicle
FALCON 9
Launch site
Air Force Eastern Test Range (AFETR)
Object type
Payload
Rocket body
Debris
Shape & HBR
Box + 2 Pan, 29 m
Radar Cross Section
36.964 m², Large (>1 m²)

Expand to show TLE details & history

TLE from 20 hours ago
0 STARLINK-11193
1 60195U 24124N   25114.82870397  .00031303  00000-0  26192-3 0  9994
2 60195  53.1552 293.1003 0000699  71.8468 288.2626 15.69740984 46456
Epoch: 2025-04-24T19:53Z
Definitive object data (Epoch: 2025-04-24T19:53:20.023Z)
Latitude
0.00001°
Longitude
141.67234°
Altitude
360.405 km
Speed
7.694 km/s
True Right ascension
19h 32m 24s
True Declination
0° 00' 00"
Sunlit
Object was in daylight at TLE epoch
Visualization TLE readout
Latitude
29.28183°
Longitude
162.25497°
Altitude
360.697 km
Speed
7.697 km/s
Apparent Right ascension
17h 09m 11s
Apparent Declination
-13° 37' 42"
Sunlit
Object is in daylight
Visualization observer readout
Local Sidereal Time
23:09:54
Azimuth
259.578° W
Elevation
-8.832°
Doppler factor
1
Orbital elements
Apogee altitude
360.371 km
Perigee altitude
359.429 km
Semi-major axis
6,738.037 km
Eccentricity
0.0000699
Inclination
53.1552°
RAAN
293.1003°
Arg. of periapsis
71.8468°
True anomaly
288.25499°
Mean anomaly
288.2626°
Eccentric anomaly
288.2588°
Mean motion
3.92413 °/min
BSTAR
0.00026192
Orbital period
91.74 mins
Loading maneuver chart data...
Loading SW <> Apogee altitude chart data...
Loading historical data...
Loading historical data...
Loading historical data...
Loading historical data...
Loading historical data...
Loading historical data...
Loading historical data...

STARLINK-11193 Visibility forecast

Observer location: undefined°, undefined°

Span
Click to sort rows by Start time (UTC) header in descending order
Start Az.
Max El. time (UTC)
Max El. Az.
Max El.
End time (UTC)
End Az.
4 mins2025-04-25 20:49:42.767Z334.113° NNW2025-04-25 20:51:42.767Z59.321° ENE31.913°2025-04-25 20:53:42.767Z105.486° ESE
|